Weather History for KEGV - October, 2012

Change the Weather History Date:

Thursday, October 4, 2012

  Actual Average Record
Temperature  
Mean Temperature 50 °F -  
Max Temperature 62 °F 61 °F 75 °F (2007)
Min Temperature 37 °F 35 °F 19 °F (1999)
Degree Days  
Heating Degree Days 16    
Moisture  
Dew Point 37 °F    
Average Humidity 69    
Maximum Humidity 100    
Minimum Humidity 38    
Precipitation  
Precipitation 0.00 in - - ()
Sea Level Pressure  
Sea Level Pressure 29.87 in    
Wind  
Wind Speed 6 mph (SW)    
Max Wind Speed 24 mph    
Max Gust Speed 37 mph    
Visibility 10 miles    
Events      
Averages and records for this station are not official NWS values.
T = Trace of Precipitation, MM = Missing Value Source: NWS Daily Summary

Daily Weather History Graph

Daily Weather History Graph

Search for Another Location

Airport or City:

Trip Planner

Search our weather history database for the weather conditions in past years. The results will help you decide how hot, cold, wet, or windy it might be!

Date:

Astronomy

Oct. 04, 2012 Rise Set
Actual Time 6:59 AM CDT 6:30 PM CDT
Civil Twilight 6:30 AM CDT 7:00 PM CDT
Nautical Twilight 5:55 AM CDT 7:34 PM CDT
Astronomical Twilight 5:20 AM CDT 8:09 PM CDT
Moon 8:51 PM CDT (10/4) 11:31 AM CDT (10/4)
Length of Visible Light 12h 30m
Length of Day
11h 30m
Waning Gibbous, 82% of the Moon is Illuminated
Oct 4
Waning Gibbous
Oct 8
Last Quarter
Oct 15
New
Oct 21
First Quarter
Oct 29
Full

Hourly Weather History & Observations

Time (CDT) Temp. Windchill Dew Point Humidity Pressure Visibility Wind Dir Wind Speed Gust Speed Precip Events Conditions
12:15 AM 42.8 °F - 42.8 °F 100% 29.97 in 10.0 mi Calm Calm - N/A   Clear
12:35 AM 41.0 °F - 41.0 °F 100% 29.97 in 10.0 mi Calm Calm - N/A   Clear
12:55 AM 42.8 °F - 42.8 °F 100% 29.97 in 10.0 mi Calm Calm - N/A   Clear
1:15 AM 41.0 °F - 41.0 °F 100% 29.97 in 7.0 mi Calm Calm - N/A   Clear
1:35 AM 39.2 °F - 39.2 °F 100% 29.97 in 1.8 mi Calm Calm - N/A   Mist
1:55 AM 39.2 °F - 39.2 °F 100% 29.96 in 3.0 mi Calm Calm - N/A   Clear
2:15 AM 41.0 °F - 41.0 °F 100% 29.96 in 5.0 mi Calm Calm - N/A   Clear
2:35 AM 39.2 °F - 37.4 °F 93% 29.95 in 10.0 mi Calm Calm - N/A   Clear
2:55 AM 39.2 °F - 39.2 °F 100% 29.94 in 10.0 mi Calm Calm - N/A   Clear
3:15 AM 39.2 °F - 39.2 °F 100% 29.94 in 10.0 mi Calm Calm - N/A   Clear
3:35 AM 37.4 °F - 37.4 °F 100% 29.93 in 10.0 mi Calm Calm - N/A   Clear
3:55 AM 39.2 °F - 39.2 °F 100% 29.93 in 10.0 mi Calm Calm - N/A   Clear
4:15 AM 37.4 °F - 37.4 °F 100% 29.93 in 10.0 mi Calm Calm - N/A   Clear
4:35 AM 39.2 °F - 39.2 °F 100% 29.92 in 10.0 mi Calm Calm - N/A   Clear
4:55 AM 37.4 °F - 37.4 °F 100% 29.92 in 10.0 mi Calm Calm - N/A   Clear
5:15 AM 37.4 °F - 37.4 °F 100% 29.91 in 10.0 mi Calm Calm - N/A   Clear
5:35 AM 37.4 °F - 37.4 °F 100% 29.91 in 10.0 mi Calm Calm - N/A   Clear
5:55 AM 37.4 °F - 37.4 °F 100% 29.90 in 10.0 mi Calm Calm - N/A   Clear
6:15 AM 37.4 °F - 37.4 °F 100% 29.89 in 10.0 mi Calm Calm - N/A   Clear
6:35 AM 37.4 °F - 37.4 °F 100% 29.89 in 10.0 mi Calm Calm - N/A   Clear
6:55 AM 37.4 °F - 37.4 °F 100% 29.88 in 4.0 mi Calm Calm - N/A   Mostly Cloudy
7:15 AM 39.2 °F - 37.4 °F 93% 29.88 in 10.0 mi Calm Calm - N/A   Mostly Cloudy
7:35 AM 41.0 °F 39.0 °F 41.0 °F 100% 29.86 in 10.0 mi SE 3.5 mph - N/A   Scattered Clouds
7:55 AM 44.6 °F - 44.6 °F 100% 29.86 in 10.0 mi Calm Calm - N/A   Clear
8:15 AM 50.0 °F - 46.4 °F 87% 29.85 in 10.0 mi South 5.8 mph - N/A   Clear
8:35 AM 51.8 °F - 46.4 °F 82% 29.84 in 10.0 mi SSE 6.9 mph - N/A   Clear
8:55 AM 53.6 °F - 46.4 °F 77% 29.83 in 10.0 mi SSE 6.9 mph - N/A   Clear
9:15 AM 57.2 °F - 46.4 °F 67% 29.83 in 10.0 mi South 8.1 mph - N/A   Clear
9:35 AM 60.8 °F - 44.6 °F 55% 29.82 in 10.0 mi South 6.9 mph 16.1 mph N/A   Clear
9:55 AM 60.8 °F - 44.6 °F 55% 29.82 in 10.0 mi South 5.8 mph - N/A   Clear
10:15 AM 59.0 °F - 44.6 °F 59% 29.81 in 10.0 mi SSW 9.2 mph 16.1 mph N/A   Scattered Clouds
10:35 AM 60.8 °F - 44.6 °F 55% 29.80 in 10.0 mi SSW 10.4 mph - N/A   Mostly Cloudy
10:55 AM 60.8 °F - 44.6 °F 55% 29.80 in 10.0 mi SW 9.2 mph 20.7 mph N/A   Overcast
11:15 AM 60.8 °F - 42.8 °F 52% 29.80 in 10.0 mi SSW 8.1 mph 16.1 mph N/A   Overcast
11:35 AM 60.8 °F - 44.6 °F 55% 29.79 in 10.0 mi SSW 10.4 mph 18.4 mph N/A   Mostly Cloudy
11:55 AM 62.6 °F - 42.8 °F 48% 29.79 in 10.0 mi SW 15.0 mph 21.9 mph N/A   Scattered Clouds
12:15 PM 62.6 °F - 42.8 °F 48% 29.80 in 10.0 mi SW 12.7 mph 23.0 mph N/A   Scattered Clouds
12:35 PM 62.6 °F - 42.8 °F 48% 29.79 in 10.0 mi SW 18.4 mph 25.3 mph N/A   Scattered Clouds
12:55 PM 60.8 °F - 41.0 °F 48% 29.79 in 10.0 mi SW 15.0 mph 21.9 mph N/A   Scattered Clouds
1:15 PM 60.8 °F - 41.0 °F 48% 29.79 in 10.0 mi SW 15.0 mph 23.0 mph N/A   Scattered Clouds
1:35 PM 60.8 °F - 37.4 °F 42% 29.80 in 10.0 mi WSW 23.0 mph 31.1 mph N/A   Scattered Clouds
1:55 PM 60.8 °F - 35.6 °F 39% 29.80 in 10.0 mi WSW 23.0 mph 27.6 mph N/A   Clear
2:15 PM 59.0 °F - 35.6 °F 42% 29.80 in 10.0 mi WSW 16.1 mph 26.5 mph N/A   Clear
2:35 PM 59.0 °F - 35.6 °F 42% 29.81 in 10.0 mi SW 17.3 mph 26.5 mph N/A   Scattered Clouds
2:55 PM 59.0 °F - 35.6 °F 42% 29.82 in 10.0 mi SW 17.3 mph 26.5 mph N/A   Scattered Clouds
3:15 PM 57.2 °F - 32.0 °F 38% 29.82 in 10.0 mi WSW 19.6 mph 29.9 mph N/A   Clear
3:35 PM 57.2 °F - 32.0 °F 38% 29.82 in 10.0 mi WSW 19.6 mph 31.1 mph N/A   Clear
3:55 PM 57.2 °F - 32.0 °F 38% 29.83 in 10.0 mi SW 18.4 mph 28.8 mph N/A   Clear
4:15 PM 55.4 °F - 32.0 °F 41% 29.83 in 10.0 mi West 20.7 mph 29.9 mph N/A   Clear
4:35 PM 55.4 °F - 32.0 °F 41% 29.84 in 10.0 mi WSW 18.4 mph 31.1 mph N/A   Clear
4:55 PM 53.6 °F - 32.0 °F 44% 29.84 in 10.0 mi WSW 23.0 mph 28.8 mph N/A   Scattered Clouds
5:15 PM 51.8 °F - 30.2 °F 44% 29.86 in 10.0 mi WSW 23.0 mph 33.4 mph N/A   Scattered Clouds
5:35 PM 51.8 °F - 30.2 °F 44% 29.86 in 10.0 mi West 15.0 mph 27.6 mph N/A   Clear
5:55 PM 50.0 °F - 30.2 °F 47% 29.87 in 10.0 mi WSW 17.3 mph 29.9 mph N/A   Clear
6:15 PM 46.4 °F 39.5 °F 30.2 °F 53% 29.88 in 10.0 mi WSW 17.3 mph 25.3 mph N/A   Clear
6:35 PM 46.4 °F 39.2 °F 30.2 °F 53% 29.88 in 10.0 mi WSW 18.4 mph 24.2 mph N/A   Clear
6:55 PM 44.6 °F 38.1 °F 30.2 °F 57% 29.88 in 10.0 mi WSW 13.8 mph 18.4 mph N/A   Clear
7:15 PM 44.6 °F 37.4 °F 30.2 °F 57% 29.89 in 10.0 mi WSW 16.1 mph 24.2 mph N/A   Clear
7:35 PM 44.6 °F 38.1 °F 30.2 °F 57% 29.89 in 10.0 mi WSW 13.8 mph 26.5 mph N/A   Scattered Clouds
7:55 PM 44.6 °F 38.4 °F 28.4 °F 53% 29.90 in 10.0 mi WSW 12.7 mph 24.2 mph N/A   Mostly Cloudy
8:15 PM 42.8 °F 34.5 °F 28.4 °F 57% 29.90 in 10.0 mi West 18.4 mph 28.8 mph N/A   Overcast
8:35 PM 42.8 °F 35.1 °F 28.4 °F 57% 29.90 in 10.0 mi West 16.1 mph 20.7 mph N/A   Mostly Cloudy
9:15 PM 42.8 °F 35.8 °F 28.4 °F 57% 29.91 in 10.0 mi West 13.8 mph 25.3 mph N/A   Mostly Cloudy
9:35 PM 42.8 °F 34.5 °F 28.4 °F 57% 29.91 in 10.0 mi West 18.4 mph 25.3 mph N/A   Overcast
9:55 PM 41.0 °F 32.8 °F 28.4 °F 61% 29.92 in 10.0 mi WSW 16.1 mph 28.8 mph N/A   Overcast
10:15 PM 41.0 °F 32.5 °F 28.4 °F 61% 29.92 in 10.0 mi West 17.3 mph 27.6 mph N/A   Overcast
10:35 PM 41.0 °F 31.4 °F 28.4 °F 61% 29.92 in 10.0 mi West 21.9 mph 31.1 mph N/A   Overcast
10:55 PM 41.0 °F 33.1 °F 28.4 °F 61% 29.91 in 10.0 mi WSW 15.0 mph 23.0 mph N/A   Overcast
11:15 PM 41.0 °F 30.9 °F 28.4 °F 61% 29.91 in 10.0 mi West 24.2 mph 36.8 mph N/A   Overcast
11:35 PM 39.2 °F 29.8 °F 26.6 °F 61% 29.92 in 10.0 mi West 18.4 mph 29.9 mph N/A   Mostly Cloudy
11:55 PM 37.4 °F 29.8 °F 26.6 °F 65% 29.92 in 10.0 mi West 11.5 mph 23.0 mph N/A   Mostly Cloudy